Погода в Борисове

Погода в Борисове : погода сейчас, прогноз погоды и архив. Всё, что Вы хотите узнать о погоде в Борисове!

Хотите узнать прогноз погоды в Борисове? Тогда Вам сюда: Погода в Борисове

Поиск расширенной информации на нашем сайте:

Другие новости

Новости СМИ2

Главная страница сайта

Новости сайта

03.07.2017

Напоминаем, что на нашем специализированном сайте Метеоцентр.Азия вы можете получить высокодетализированные автоматические прогнозы погоды по пунктам России, СНГ и мира в авиационном формате (включающие направление и скорость ветра, видимость, явления погоды, количество и форму облачности, нижнюю и верхнюю границу облачности).


Погода в Борисове - сегодня

Время (UTC), дата Ветер
(°,м/с) 
Видим.   Явления Облачность Т
(°С)
Тd
(°С)
f(%) Тe
(°С)
Pmin
(гПа)
dP
(гПа)
Po
(мм)
O2
(г/м3)
Тmin Tmax R s Состояние
почвы
03 12.12.17 130 (ЮВ) 5000 м  дымка  10/10 100 м 
[St]
-0.8 -1.1 98 -3  1004.3  -0.9  736  297         
06 12.12.17 140 (ЮВ) 4800 м  дымка  10/10 100 м 
[St]
-0.4 -0.7 98 -1  1003.7  -0.5  735  297  -0.9      равномерный
сухой снег
100% 
09 12.12.17 150 (ЮВ) 3800 м  дымка  10/10 100 м 
[St]
+0.4 +0 97 -1  1002.8  -0.9  735  296           
12 12.12.17 150 (ЮВ) 4900 м  дымка  10/10 100 м 
[St]
+1.5 +0.9 96 1001.5  -1.1  734  294           
15 12.12.17 180 (Ю) 19000 м    10/10 600 м 
[Sc]
+3.6 +2.4 92 +2  1002.5  1.1  735  292           
18 12.12.17 190 (Ю) 23000 м    10/10 800 м 
[Sc]
+4.3 +3.1 92 +3  1003.3  0.9  735  291    +4.3     
21 12.12.17 210 (ЮЗ) 25000 м    10/10 720 м 
[Sc]
+5 +3.7 91 +4  1005.1  1.8  737  291           
00 13.12.17 210 (ЮЗ) 35000 м    8/8 800 м 
[Sc]
+4.6 +2.6 87 +3  1006.5  1.3  738  292           
06 13.12.17 210 (ЮЗ) 35000 м    8/8 600 м 
[Sc]
+1.4 -1.7 80 -1  1010.3  1.7  740  297  +1.3      равномерный
мокрый или
старый снег
100% 
09 13.12.17 210 (ЮЗ) 35000 м    9/9 840 м 
[Sc]
+1.5 -1.7 79 1012  1.6  741  297           
12 13.12.17 240 (ЮЗ) 35000 м    9/9 600 м 
[Sc]
+1.4 -1.5 81 +1  1013  742  298           
15 13.12.17 тихо ()   26000 м    ясно 
-1.2 -3.2 86 -1  1014.1  0.8  743  301           
18 13.12.17 190 (Ю) 16000 м    н/о 
-2 -3.1 92 -1  1014.2  0.1  743  302    +1.9     
21 13.12.17 тихо ()   2800 м  дымка  ясно 
-3.4 -4 96 -3  1013.6  -0.7  742  303           
00 14.12.17 120 (ЮВ) 5000 м  дымка  ясно 
-3.9 -4.3 97 -3  1012.5  -1.2  741  304           
03 14.12.17 130 (ЮВ) 7000 м  дымка  ясно 
-4.4 -4.8 97 -4  1010.6  -1.9  740  304         
06 14.12.17 130 (ЮВ) 9000 м  дымка  9/9 600 м 
[Sc]
-4.1 -4.7 96 -5  1008.4  -2.1  738  303  -4.5      мокрый или
старый снег
50-90% 
09 14.12.17 150 (ЮВ) 6000 м  дымка  10/10 100 м 
[St]
-2.5 -3.1 96 -4  1006.3  -1.9  737  300           
12 14.12.17 160 (Ю) 8000 м  дымка  10/10 180 м 
[St]
-0.6 -1.4 94 -2  1003.2  -2.9  735  297           
15 14.12.17 160 (Ю) 11000 м    10/10 300 м 
[St]
+0.3 -1 91 -2  1001.4  -1.6  734  295           
18 14.12.17 160 (Ю) 3900 м  слаб. снег  10/10 240 м 
[Frnb]
+0.1 -0.7 94 -2  1000.4  -1  733  295    +0.4  0.5   
21 14.12.17 160 (Ю) 9000 м  слаб. снег  10/10 210 м 
[Frnb]
+0.3 -0.3 96 -2  999.1  -1.3  732  295           
00 15.12.17 180 (Ю) 15000 м  {снег}  10/10 180 м 
[Frnb]
+1.3 +0.2 92 -1  999  732  293           
03 15.12.17 200 (Ю) 3{11}  30000 м    10/10 700 м 
[Sc]
+1.7 -0.4 86 999.8  0.8  733  293      0.6   
06 15.12.17 190 (Ю) 4{10}  23000 м    10/10 700 м 
[Sc]
+1.2 -0.7 87 -1  1002.4  2.5  734  295  +0.1    0.6  равномерный
мокрый или
старый снег
100% 
Время (UTC), дата Ветер
(°,м/с) 
Видим.   Явления Облачность Т
(°С)
Тd
(°С)
f(%) Тe
(°С)
Pmin
(гПа)
dP
(гПа)
Po
(мм)
O2
(г/м3)
Тmin Tmax R s Состояние
почвы

Для получения пояснительной информации подведите курсор к названию столбца.

ПОГОДА в Борисове - архив

Всё, что Вы хотите узнать о погоде в Борисове - удобно и подробно!

Выберите нужную дату (начиная с 1 января 2015* года) и нажмите кнопку "Найти".
Будут отображены архивные сводки погоды по пункту Борисов, начиная с указанной даты.


Отображать данные в формате CSV (для использования в таблицах Excel)


Внимание! Наш архив погоды предназначен исключительно для личного некоммерческого использования в познавательных целях. Если Вам необходимы официальные справки о состоянии погоды (для производственных, юридических, коммерческих и т.п. целей), обращайтесь в органы Росгидромета.

*Примечание: данная дата относится к архиву по метеостанциям СССР (Россия, СНГ, Балтия).
Архив по метеостанциям Зарубежной Европы и Азии (кроме Китая) хранится 10 дней, по другим регионам земного шара (Китай, Африка, Америка, Австралия, Океания) - 1 день.

Борисов - район местоположения метеостанции


Название, широта, долгота, высота метеостанции:
Борисов 54.3°ш. 28.5°д. 189 м над ур. моря [Беларусь]

Дополнительная информация

В oтличие oт бoльшинства пoгoдных сайтoв мы публикуем пoдрoбную метеoинфoрмацию в детальнoм прoфессиoнальнoм фoрмате.

Характеристики температуры и влажнoсти вoздуха измеряются на высoте 2 м в тени вдали oт зданий и деревьев.
Скoрoсть ветра измеряется на высoте 10 м (на урoвне рoста челoвека скoрoсть ветра ниже в 1.5-2 раза). Если метеoстанция нахoдится в гoрoде или в лесу, тo скoрoсть ветра занижена на 2-4 м/с пo сравнению с oткрытым местoм. Скoрoсть ветра над акватoриями крупных рек и oзёр, а также на вершинах хoлмoв на 2-5 м/с выше, чем в oбычных услoвиях.
Атмoсфернoе давление в разных тoчках местнoсти мoжет значительнo oтличаться oт давления на метеoстанции, в зависимoсти oт услoвий рельефа (при пoдъёме на 10 м давление пoнижается примернo на 1 мм рт.ст.).